Wind_Speed
13 14 17 18 17 15 15 15 14 12 12 13 11 10 9 9 10 11 11 12 13 14 15 16 16 17 18 19 19 20 20 20 20 20 20 20 20 20 19 17 15 14 15
16 14 15 16 15 14 14 14 13 12 13 14 12 12 12 11 11 12 13 14 14 15 16 17 17 18 19 20 21 23 24 24 23 22 23 23 24 24 23 21 19 18 17
13 12 13 12 10 10 12 11 10 11 13 14 14 14 15 15 14 14 15 15 17 18 18 19 19 20 20 21 23 24 25 26 26 26 26 26 27 27 26 25 25 23 22
11 11 9 8 8 8 9 10 11 11 12 14 15 16 16 17 17 17 17 17 18 18 19 20 20 21 21 22 24 26 28 29 29 29 29 29 30 29 28 29 28 28 28
11 9 8 10 10 10 8 8 7 9 10 13 13 14 16 16 17 18 19 19 18 19 20 20 21 23 24 26 26 27 29 31 32 33 33 34 36 35 33 34 34 35 35
9 9 8 8 7 3 4 4 5 8 11 12 12 13 14 14 13 14 15 17 18 19 21 23 25 27 26 26 27 28 30 33 36 37 38 38 40 41 41 41 43 43 43
12 10 7 6 2 1 3 6 10 12 12 12 10 11 11 12 13 14 15 16 18 19 20 22 25 27 26 27 29 31 32 34 38 39 39 41 40 41 42 43 43 42 42
19 12 11 13 10 8 7 7 10 11 11 11 10 10 10 10 12 14 15 15 16 18 19 21 23 26 27 28 31 32 32 35 39 40 40 41 41 41 40 39 38 37 40
18 19 16 18 16 11 9 8 6 8 9 9 10 11 12 13 14 15 16 17 18 19 19 20 22 25 26 27 28 29 31 34 35 36 37 37 37 37 36 35 35 35 36
20 17 14 14 15 12 10 9 8 10 13 14 15 16 17 17 17 18 19 20 20 21 20 20 21 23 24 27 28 29 31 32 33 34 36 37 36 36 35 34 33 32 33
21 19 21 16 12 13 11 11 13 14 16 18 22 23 22 21 21 22 23 23 24 24 23 23 23 24 26 28 30 31 32 33 34 35 37 38 38 37 37 36 34 32 32
23 25 24 21 13 5 11 13 14 13 18 22 24 23 22 22 24 24 24 24 24 25 25 24 24 26 28 29 31 32 32 33 34 35 37 39 39 38 38 37 35 35 35
22 23 22 20 14 5 3 9 11 13 17 19 20 22 23 23 24 24 23 24 25 26 26 25 26 27 28 29 32 35 36 36 36 37 38 40 42 41 40 41 40 40 40
21 22 17 11 8 3 4 9 14 16 18 20 19 20 23 24 24 24 24 23 24 25 27 27 26 27 30 34 37 40 41 41 41 41 42 44 45 46 47 48 46 46 46
18 20 16 14 10 7 11 15 18 22 22 23 26 25 26 26 26 28 29 28 28 29 30 30 30 33 36 38 39 40 42 42 45 46 48 49 50 51 52 53 53 52 51
18 19 19 20 17 13 13 17 21 22 21 20 21 23 27 29 30 30 31 30 32 34 33 31 33 36 39 40 39 39 41 44 46 49 49 50 53 56 58 58 58 53 52
18 18 20 23 20 16 13 14 18 20 21 24 23 24 27 28 27 28 29 32 33 33 33 35 38 40 41 41 42 44 45 45 46 49 50 51 53 57 58 60 63 64 62
19 20 23 24 21 16 13 15 17 19 20 21 21 25 27 26 27 29 31 32 33 35 37 38 41 43 44 44 47 50 51 53 52 53 53 55 57 61 62 61 63 66 68
20 23 25 22 18 15 15 17 19 21 21 21 23 26 26 27 29 31 34 35 36 39 41 41 43 46 47 47 49 52 55 57 57 59 59 60 61 64 66 68 69 70 72
23 25 27 23 20 18 19 21 22 23 23 24 25 25 26 28 31 33 35 38 40 41 42 44 47 49 50 51 53 56 58 59 61 64 65 64 65 66 67 72 75 76 76
25 27 29 28 27 26 26 27 29 28 26 26 26 26 27 29 32 35 38 41 43 45 47 49 51 54 55 57 59 59 60 63 63 57 55 54 56 57 59 65 68 73 79
28 30 33 35 33 32 32 32 32 32 31 30 31 31 32 33 35 40 43 45 46 49 51 52 55 58 59 60 60 59 58 54 50 49 50 51 51 53 55 56 54 53 55
32 34 37 38 37 37 38 39 38 38 38 36 36 35 36 39 43 46 48 48 50 52 53 54 57 59 60 57 53 48 42 40 41 43 44 44 45 47 51 54 53 51 50
35 37 39 40 40 41 41 42 42 43 44 40 41 41 42 47 51 52 52 51 51 53 55 57 59 58 54 46 42 40 40 40 40 41 41 42 44 47 50 51 52 51 51
37 41 42 43 43 43 43 42 41 41 41 41 43 45 48 54 58 56 56 56 56 54 55 59 59 52 44 41 41 41 39 40 44 45 46 45 47 52 55 53 50 49 49
40 41 43 45 44 45 45 44 42 41 42 45 46 51 57 61 62 59 58 58 57 55 57 58 53 44 41 43 43 41 40 42 44 48 50 52 53 55 57 58 52 47 46
Wind_Direction
310 291 286 289 288 287 284 285 285 284 281 278 276 277 277 279 279 277 273 270 268 266 266 265 266 266 265 264 262 261 262 263 262 263 267 270 273 270 267 264 267 267 269
318 313 299 291 290 289 283 280 280 280 279 275 275 276 276 272 269 272 272 271 270 270 270 270 269 267 266 267 268 270 271 271 271 270 270 272 273 273 274 276 277 275 273
325 324 308 292 283 273 269 274 279 277 275 277 282 284 282 277 272 269 270 272 274 273 272 272 272 273 272 270 269 270 271 271 273 273 274 276 278 280 281 280 278 277 272
327 321 298 273 260 254 257 265 271 278 282 284 285 286 283 278 276 273 267 265 266 269 270 272 275 277 278 279 279 278 277 276 274 273 273 275 275 274 272 272 272 276 273
316 310 288 268 263 256 256 266 285 291 286 283 286 288 288 286 278 274 271 267 267 268 267 270 275 277 280 278 277 278 279 278 276 275 276 276 275 272 269 270 268 272 272
299 292 287 287 304 314 333 262 287 290 286 282 285 290 295 300 293 279 277 273 271 274 276 273 274 277 278 278 278 278 278 277 276 276 276 276 277 277 278 274 272 273 271
316 302 277 269 289 107 259 247 264 272 277 281 276 278 289 296 294 287 281 279 275 274 278 278 280 282 279 274 275 278 277 277 277 277 275 274 273 275 275 274 272 270 270
299 289 280 265 258 263 280 281 262 267 276 285 283 279 286 292 289 287 284 283 282 282 281 281 282 284 283 277 276 276 274 274 275 277 277 276 277 275 273 272 272 271 269
304 284 304 280 280 286 262 246 249 266 274 278 284 290 290 285 285 286 282 282 282 281 283 284 283 284 282 281 282 281 278 279 279 279 277 277 277 277 275 276 277 278 275
337 311 322 290 270 257 253 260 270 283 290 294 297 297 294 293 292 288 285 282 280 278 275 272 273 275 277 279 280 279 279 280 280 280 279 278 277 276 276 275 275 275 274
357 356 354 342 294 266 273 286 284 291 301 302 299 297 298 298 295 288 284 284 284 282 278 272 267 268 270 271 272 273 275 276 277 278 278 278 277 276 275 274 273 270 270
22 19 19 27 27 292 271 291 281 284 296 295 294 295 293 291 290 288 287 288 287 285 285 282 274 267 268 270 272 272 273 275 275 275 274 273 273 272 272 271 270 269 268
27 18 14 30 53 80 249 272 293 290 287 290 292 293 293 293 292 290 287 285 283 283 285 288 283 277 276 276 274 274 273 272 272 274 274 274 272 268 267 266 266 268 268
23 16 13 24 11 327 260 268 279 283 283 282 288 293 297 296 292 285 278 280 285 290 293 295 293 289 288 290 289 286 281 273 270 270 270 271 272 272 270 269 269 269 269
14 17 13 12 356 310 287 286 284 282 295 284 271 285 295 293 294 294 293 297 297 298 299 299 299 298 297 295 293 291 288 284 280 279 277 273 271 272 274 274 274 275 274
2 4 360 357 349 325 298 296 293 289 300 303 297 298 301 295 296 298 301 303 302 303 303 302 300 299 298 295 292 292 285 282 283 281 280 276 272 269 268 269 271 272 273
347 352 349 350 342 327 311 304 297 294 304 308 296 300 303 298 295 299 305 303 301 302 301 301 302 302 299 293 294 296 288 281 284 285 285 282 277 273 271 270 268 266 266
336 344 344 347 345 334 320 318 313 309 312 309 296 296 301 302 303 306 308 308 305 303 302 300 298 297 297 294 292 291 287 283 283 283 282 281 279 276 272 270 270 270 268
332 339 339 346 349 338 327 331 330 325 322 316 308 306 307 307 306 307 308 306 304 303 302 299 296 295 295 292 288 286 285 283 283 283 284 282 280 278 275 274 273 273 270
329 331 334 338 338 332 328 332 334 330 323 318 314 309 306 303 303 305 306 304 303 302 301 298 296 296 294 292 290 287 285 284 284 284 284 282 280 278 276 275 272 270 269
321 325 327 327 322 320 320 326 330 331 329 323 317 314 312 310 309 308 308 306 306 306 305 303 301 300 297 295 292 288 286 284 284 284 283 284 284 281 281 280 279 274 272
316 319 319 320 318 315 315 318 323 328 329 328 323 319 319 317 315 316 315 311 310 308 306 304 302 299 296 295 292 290 288 283 279 282 283 284 285 284 283 283 282 280 278
310 311 311 312 312 314 314 316 320 326 327 324 324 324 325 323 319 317 315 311 309 307 305 303 302 301 299 295 294 294 290 286 283 281 280 282 285 288 289 287 282 280 279
303 303 302 305 308 310 313 314 317 320 323 323 322 322 322 323 320 315 311 308 307 307 305 304 304 304 302 297 296 296 294 292 288 286 288 289 292 293 296 293 285 278 276
296 297 295 296 299 303 306 309 313 317 320 321 321 318 314 316 319 315 311 309 307 306 305 305 305 303 300 294 294 295 293 293 293 294 293 293 294 295 297 297 291 283 280
294 292 289 288 290 294 297 301 306 312 316 317 317 315 314 314 316 315 313 310 308 307 307 307 303 299 295 293 293 292 293 295 295 295 295 295 294 296 298 299 296 288 281
Height
5892 5890 5888 5887 5887 5886 5886 5887 5888 5889 5890 5892 5892 5892 5892 5892 5892 5892 5893 5893 5892 5893 5894 5895 5895 5896 5896 5896 5897 5897 5897 5898 5899 5899 5900 5900 5900 5900 5900 5900 5900 5900 5900
5888 5886 5885 5884 5883 5882 5883 5884 5884 5885 5886 5888 5889 5890 5890 5890 5890 5890 5890 5891 5890 5890 5890 5891 5892 5892 5892 5892 5893 5893 5893 5894 5895 5896 5897 5897 5897 5897 5896 5897 5897 5896 5896
5884 5883 5882 5881 5880 5879 5879 5880 5881 5883 5884 5886 5886 5887 5888 5887 5887 5887 5887 5887 5887 5887 5887 5887 5888 5889 5889 5889 5889 5888 5888 5889 5891 5891 5891 5892 5892 5893 5893 5892 5891 5891 5892
5880 5879 5879 5879 5878 5878 5878 5879 5880 5882 5883 5884 5884 5884 5885 5884 5884 5884 5883 5883 5883 5884 5884 5883 5883 5883 5884 5885 5885 5885 5884 5885 5886 5886 5886 5886 5886 5887 5888 5887 5886 5886 5886
5876 5876 5876 5877 5877 5877 5876 5877 5878 5878 5879 5881 5881 5881 5881 5881 5881 5881 5880 5880 5880 5880 5879 5879 5880 5880 5881 5881 5880 5880 5881 5880 5880 5881 5882 5882 5881 5880 5880 5881 5880 5880 5880
5875 5875 5875 5875 5875 5875 5874 5875 5877 5877 5877 5877 5876 5876 5876 5876 5876 5876 5876 5876 5876 5876 5876 5876 5876 5876 5877 5876 5876 5876 5876 5874 5873 5875 5875 5874 5874 5872 5873 5873 5872 5872 5872
5874 5873 5872 5872 5872 5872 5873 5874 5874 5875 5875 5874 5874 5874 5874 5873 5873 5872 5871 5871 5871 5871 5871 5871 5871 5870 5870 5871 5871 5870 5869 5868 5866 5867 5867 5866 5865 5864 5864 5863 5863 5862 5862
5873 5873 5871 5870 5869 5870 5870 5871 5872 5873 5874 5874 5874 5874 5873 5872 5871 5871 5870 5868 5867 5867 5866 5866 5866 5865 5864 5864 5865 5864 5864 5863 5861 5860 5859 5858 5857 5856 5855 5854 5853 5852 5852
5871 5870 5869 5869 5869 5869 5869 5870 5870 5871 5872 5873 5873 5873 5871 5870 5869 5868 5867 5865 5865 5864 5863 5862 5861 5860 5857 5856 5857 5857 5856 5856 5855 5854 5853 5853 5852 5850 5849 5848 5847 5845 5844
5869 5868 5868 5866 5866 5866 5867 5868 5869 5871 5871 5871 5870 5868 5867 5865 5864 5863 5862 5861 5860 5859 5857 5855 5855 5854 5852 5851 5851 5851 5850 5849 5849 5848 5847 5847 5845 5844 5843 5842 5841 5839 5837
5868 5868 5866 5863 5863 5864 5866 5866 5867 5867 5867 5865 5864 5862 5861 5860 5859 5858 5856 5855 5853 5852 5851 5849 5848 5848 5847 5845 5845 5844 5842 5841 5841 5840 5840 5839 5838 5836 5835 5835 5834 5832 5831
5868 5867 5865 5863 5863 5864 5865 5865 5862 5862 5861 5860 5858 5856 5855 5854 5853 5852 5850 5848 5847 5847 5846 5844 5843 5842 5840 5839 5839 5837 5835 5834 5833 5832 5831 5830 5829 5828 5828 5827 5826 5825 5823
5869 5866 5865 5863 5862 5863 5863 5862 5860 5858 5856 5855 5853 5852 5851 5849 5848 5847 5845 5844 5842 5841 5840 5838 5836 5835 5834 5832 5831 5830 5828 5826 5825 5823 5822 5821 5820 5819 5819 5818 5816 5816 5816
5867 5866 5864 5863 5861 5860 5859 5858 5857 5855 5853 5850 5849 5847 5846 5846 5845 5843 5842 5840 5838 5836 5834 5832 5830 5829 5828 5826 5823 5820 5818 5816 5814 5813 5812 5810 5810 5809 5809 5809 5808 5807 5806
5865 5864 5864 5863 5861 5859 5857 5855 5853 5851 5849 5846 5844 5844 5842 5841 5839 5837 5836 5834 5832 5829 5827 5825 5824 5822 5820 5817 5814 5812 5809 5807 5805 5804 5803 5801 5798 5797 5797 5796 5795 5795 5795
5863 5862 5862 5861 5859 5857 5855 5851 5848 5846 5844 5843 5842 5839 5838 5836 5834 5832 5831 5828 5825 5821 5819 5818 5817 5814 5811 5808 5805 5802 5799 5796 5794 5791 5789 5787 5786 5784 5783 5782 5782 5782 5783
5862 5861 5861 5859 5857 5855 5852 5848 5846 5843 5841 5839 5837 5835 5833 5832 5831 5829 5827 5824 5820 5816 5813 5811 5809 5805 5802 5799 5796 5793 5790 5786 5783 5779 5776 5773 5771 5770 5769 5769 5768 5769 5768
5858 5857 5856 5856 5854 5851 5849 5847 5844 5842 5839 5836 5834 5833 5830 5828 5825 5823 5820 5817 5813 5810 5807 5805 5801 5798 5796 5793 5789 5783 5779 5775 5771 5767 5764 5761 5758 5755 5754 5752 5751 5750 5750
5855 5854 5853 5853 5851 5848 5846 5844 5841 5837 5834 5831 5829 5826 5824 5822 5819 5816 5812 5809 5806 5802 5799 5795 5792 5790 5786 5781 5776 5770 5765 5760 5756 5752 5750 5746 5743 5741 5738 5735 5733 5731 5730
5851 5850 5848 5848 5848 5846 5844 5841 5838 5834 5830 5826 5822 5820 5818 5815 5812 5808 5805 5801 5797 5793 5790 5785 5780 5776 5772 5766 5761 5755 5750 5745 5740 5736 5732 5728 5725 5722 5719 5717 5713 5711 5710
5848 5846 5844 5844 5844 5842 5839 5835 5832 5828 5824 5820 5817 5814 5810 5807 5804 5800 5796 5791 5786 5781 5776 5771 5765 5760 5754 5749 5744 5740 5735 5729 5724 5721 5716 5711 5707 5703 5701 5697 5693 5691 5691
5842 5840 5839 5838 5836 5834 5832 5828 5825 5821 5816 5813 5810 5806 5801 5798 5794 5788 5783 5778 5772 5767 5762 5756 5750 5744 5738 5732 5726 5722 5718 5714 5709 5707 5702 5698 5694 5690 5686 5681 5676 5673 5670
5835 5833 5832 5829 5826 5822 5819 5816 5813 5810 5807 5803 5799 5795 5790 5786 5781 5775 5769 5763 5758 5753 5747 5741 5735 5728 5722 5716 5709 5703 5699 5697 5696 5695 5691 5687 5683 5677 5672 5667 5663 5660 5656
5828 5825 5822 5818 5815 5813 5810 5806 5802 5800 5797 5793 5789 5784 5779 5774 5769 5763 5757 5750 5744 5738 5732 5725 5719 5712 5705 5700 5695 5690 5686 5683 5681 5680 5678 5674 5669 5663 5659 5654 5649 5645 5641
5822 5819 5814 5811 5808 5805 5802 5799 5795 5792 5789 5783 5778 5773 5768 5762 5757 5750 5744 5737 5729 5721 5715 5709 5702 5696 5691 5687 5683 5679 5676 5672 5668 5664 5661 5659 5655 5648 5642 5638 5635 5631 5627
5815 5812 5808 5804 5800 5798 5795 5792 5787 5782 5778 5773 5768 5763 5756 5749 5742 5735 5730 5723 5716 5708 5701 5694 5687 5682 5679 5675 5671 5667 5663 5660 5656 5651 5647 5644 5641 5636 5626 5620 5618 5616 5613